contact:dominique.lefevre@mio.osupytheas.fr, maurice.libes@osupytheas.fr, didier.mallarino@osupytheas.fr
Project:EMSO http://www.emso-fr.org/EMSO-France
Depth: 2436.0 m
Title:EMSO Ligure Ouest : Data MII capteur AQUADOPP
Date,Latitude,Longitude,X_East,Y_North,Z_Up,Amplitude_X,Amplitude_Y,Amplitude_Z,Batterie,SoundSpeed,Heading,Pitch,Roll,Pressure,TIS,Speed,Direction
, degrees North, degrees East, m.s-1, m.s-1,m.s-1, 1, 1, 1, Volt, m.s-1, degree, degree, degree, dbar, degree_C, m.s-1, degree
2021-03-06T00:04:03,42.805,6.029,-0.025,-0.027,-0.016,100.0,101.0,100.0,13.4,1505.2,324.6,-0.8,1.8,2470.459,13.28,0.036,222.8
2021-03-06T00:07:03,42.805,6.029,-0.005,-0.022,0.021,100.0,101.0,101.0,13.3,1505.2,324.9,-0.8,1.8,2470.457,13.28,0.022,192.8
2021-03-06T00:10:03,42.805,6.029,-0.011,-0.035,-0.002,102.0,101.0,102.0,13.4,1505.2,327.3,-0.8,1.9,2470.451,13.28,0.036,197.4
2021-03-06T00:13:03,42.805,6.029,-0.01,-0.026,-0.009,103.0,101.0,100.0,13.4,1505.2,323.5,-0.8,1.8,2470.44,13.28,0.027,201.0
2021-03-06T00:16:03,42.805,6.029,-0.022,-0.019,0.0,100.0,103.0,101.0,13.4,1505.2,327.4,-0.8,1.9,2470.461,13.28,0.029,229.2
2021-03-06T00:19:03,42.805,6.029,-0.008,-0.017,0.027,101.0,104.0,100.0,13.4,1505.2,324.8,-0.8,1.8,2470.448,13.28,0.018,205.2
2021-03-06T00:22:03,42.805,6.029,-0.009,-0.045,0.008,104.0,102.0,100.0,13.3,1505.2,324.8,-0.8,1.8,2470.444,13.28,0.045,191.3
2021-03-06T00:25:03,42.805,6.029,-0.02,-0.018,0.032,103.0,103.0,100.0,13.4,1505.2,325.0,-0.7,1.8,2470.43,13.28,0.026,228.0
2021-03-06T00:28:03,42.805,6.029,-0.022,-0.018,0.0,100.0,101.0,101.0,13.4,1505.2,325.1,-0.7,1.8,2470.463,13.29,0.028,230.7
2021-03-06T00:31:03,42.805,6.029,-0.004,-0.022,0.041,100.0,102.0,100.0,13.4,1505.2,327.8,-0.7,1.8,2470.444,13.28,0.022,190.3
2021-03-06T00:34:03,42.805,6.029,-0.016,-0.024,0.024,103.0,103.0,100.0,13.4,1505.2,324.8,-0.8,1.8,2470.465,13.28,0.028,213.7
2021-03-06T00:37:03,42.805,6.029,0.003,-0.016,0.0,99.0,101.0,101.0,13.4,1505.2,327.1,-0.7,1.8,2470.451,13.28,0.016,169.4
2021-03-06T00:40:03,42.805,6.029,0.011,-0.025,0.002,104.0,101.0,102.0,13.4,1505.2,324.8,-0.7,1.8,2470.47,13.28,0.027,156.3
2021-03-06T00:43:03,42.805,6.029,0.029,-0.026,0.037,103.0,101.0,100.0,13.4,1505.2,324.0,-0.7,1.8,2470.467,13.29,0.038,131.9
2021-03-06T00:46:03,42.805,6.029,-0.015,-0.012,0.017,102.0,101.0,102.0,13.4,1505.2,324.7,-0.8,1.8,2470.398,13.28,0.019,231.3
2021-03-06T00:49:03,42.805,6.029,-0.002,-0.038,0.019,99.0,102.0,101.0,13.4,1505.2,327.9,-0.7,1.8,2470.414,13.29,0.038,183.0
2021-03-06T00:52:03,42.805,6.029,0.006,-0.028,0.027,100.0,101.0,102.0,13.4,1505.2,325.2,-0.8,1.8,2470.445,13.29,0.028,167.9
2021-03-06T00:55:03,42.805,6.029,-0.014,-0.009,0.0,100.0,103.0,101.0,13.4,1505.2,324.3,-0.7,1.8,2470.405,13.29,0.016,237.3
2021-03-06T00:58:03,42.805,6.029,-0.01,-0.017,0.003,101.0,102.0,102.0,13.3,1505.2,324.6,-0.8,1.8,2470.444,13.29,0.019,210.5
2021-03-06T01:04:03,42.805,6.029,-0.008,-0.031,0.009,102.0,102.0,100.0,13.4,1505.2,326.3,-0.7,1.8,2470.483,13.28,0.032,194.5
2021-03-06T01:07:03,42.805,6.029,-0.017,-0.016,0.009,102.0,102.0,100.0,13.4,1505.2,323.1,-0.7,1.8,2470.473,13.28,0.023,226.7
2021-03-06T01:10:03,42.805,6.029,-0.025,-0.012,-0.038,101.0,102.0,100.0,13.3,1505.2,327.1,-0.7,1.8,2470.441,13.28,0.027,244.4
2021-03-06T01:13:03,42.805,6.029,-0.006,-0.02,0.002,103.0,103.0,102.0,13.4,1505.2,327.3,-0.7,1.8,2470.435,13.28,0.02,196.7
2021-03-06T01:16:03,42.805,6.029,-0.006,-0.03,0.006,105.0,103.0,101.0,13.3,1505.2,323.2,-0.7,1.8,2470.435,13.28,0.03,191.3
2021-03-06T01:19:03,42.805,6.029,-0.033,-0.021,0.008,103.0,102.0,100.0,13.4,1505.2,322.9,-0.8,1.8,2470.443,13.28,0.039,237.5
2021-03-06T01:22:03,42.805,6.029,-0.004,-0.009,0.002,102.0,100.0,102.0,13.3,1505.2,324.9,-0.7,1.8,2470.449,13.28,0.009,204.0
2021-03-06T01:25:03,42.805,6.029,-0.014,-0.024,0.023,100.0,102.0,101.0,13.4,1505.2,325.2,-0.7,1.8,2470.445,13.29,0.027,210.3
2021-03-06T01:28:03,42.805,6.029,-0.002,-0.03,0.019,103.0,104.0,100.0,13.4,1505.2,324.7,-0.8,1.8,2470.428,13.29,0.03,183.8
2021-03-06T01:31:03,42.805,6.029,0.005,-0.028,0.028,104.0,100.0,99.0,13.3,1505.2,325.0,-0.8,1.8,2470.456,13.28,0.028,169.9
2021-03-06T01:34:03,42.805,6.029,-0.008,-0.031,0.018,101.0,102.0,100.0,13.3,1505.2,325.1,-0.8,1.8,2470.458,13.29,0.032,194.5
2021-03-06T01:37:03,42.805,6.029,-0.022,-0.024,0.0,101.0,102.0,101.0,13.4,1505.2,323.5,-0.7,1.9,2470.466,13.28,0.032,222.5
2021-03-06T01:40:03,42.805,6.029,0.017,-0.033,-0.003,102.0,102.0,100.0,13.4,1505.2,326.3,-0.8,1.8,2470.423,13.29,0.037,152.7
2021-03-06T01:43:03,42.805,6.029,-0.001,-0.023,0.039,101.0,101.0,101.0,13.3,1505.2,323.8,-0.7,1.8,2470.421,13.29,0.023,182.5
2021-03-06T01:46:03,42.805,6.029,-0.008,-0.025,-0.009,102.0,102.0,101.0,13.4,1505.2,324.7,-0.8,1.8,2470.445,13.28,0.026,197.7
2021-03-06T01:49:03,42.805,6.029,-0.003,-0.009,0.013,101.0,101.0,101.0,13.4,1505.2,326.0,-0.8,1.9,2470.443,13.29,0.009,198.4
2021-03-06T01:52:03,42.805,6.029,-0.004,-0.02,0.016,102.0,102.0,99.0,13.4,1505.2,326.3,-0.7,1.8,2470.461,13.28,0.02,191.3
2021-03-06T01:55:03,42.805,6.029,0.004,-0.034,0.025,102.0,105.0,99.0,13.4,1505.2,323.8,-0.8,1.9,2470.443,13.28,0.034,173.3
2021-03-06T01:58:03,42.805,6.029,-0.006,-0.01,0.043,103.0,102.0,99.0,13.4,1505.2,327.4,-0.8,1.9,2470.431,13.28,0.011,211.0
2021-03-06T02:04:03,42.805,6.029,-0.017,-0.009,0.046,101.0,102.0,101.0,13.4,1505.2,322.9,-0.7,1.8,2470.451,13.28,0.019,242.1
2021-03-06T02:07:03,42.805,6.029,-0.008,-0.007,-0.013,102.0,101.0,101.0,13.4,1505.2,328.3,-0.8,1.8,2470.394,13.28,0.01,228.8
2021-03-06T02:10:03,42.805,6.029,-0.023,-0.025,-0.004,102.0,101.0,102.0,13.3,1505.2,326.5,-0.7,1.8,2470.434,13.28,0.033,222.6
2021-03-06T02:13:03,42.805,6.029,0.002,-0.01,-0.004,102.0,101.0,102.0,13.4,1505.2,327.7,-0.8,1.8,2470.456,13.28,0.01,168.7
2021-03-06T02:16:03,42.805,6.029,0.016,-0.009,0.019,101.0,101.0,101.0,13.4,1505.2,324.8,-0.7,1.8,2470.43,13.28,0.018,119.4
2021-03-06T02:19:03,42.805,6.029,-0.004,-0.035,-0.034,101.0,102.0,99.0,13.3,1505.2,325.9,-0.8,1.8,2470.44,13.28,0.035,186.5
2021-03-06T02:22:03,42.805,6.029,0.001,-0.013,0.027,101.0,103.0,100.0,13.4,1505.2,328.8,-0.7,1.9,2470.455,13.28,0.013,175.6
2021-03-06T02:25:03,42.805,6.029,-0.01,-0.023,0.027,102.0,102.0,100.0,13.3,1505.2,324.0,-0.7,1.8,2470.429,13.28,0.025,203.5
2021-03-06T02:28:03,42.805,6.029,-0.003,-0.016,0.019,100.0,102.0,100.0,13.4,1505.2,327.9,-0.8,1.8,2470.419,13.28,0.016,190.6
2021-03-06T02:31:03,42.805,6.029,0.004,-0.026,0.014,101.0,102.0,100.0,13.3,1505.2,323.2,-0.7,1.8,2470.423,13.28,0.026,171.3
2021-03-06T02:34:03,42.805,6.029,-0.008,-0.034,-0.012,102.0,101.0,100.0,13.3,1505.2,326.3,-0.7,1.8,2470.419,13.28,0.034,193.2
2021-03-06T02:37:03,42.805,6.029,0.012,-0.022,0.001,102.0,101.0,100.0,13.4,1505.2,324.7,-0.7,1.8,2470.405,13.28,0.025,151.4
2021-03-06T02:40:03,42.805,6.029,-0.013,-0.006,0.006,103.0,102.0,100.0,13.4,1505.2,326.9,-0.8,1.8,2470.411,13.28,0.014,245.2
2021-03-06T02:43:03,42.805,6.029,-0.008,-0.041,-0.02,101.0,101.0,101.0,13.4,1505.2,325.9,-0.8,1.8,2470.426,13.28,0.041,191.0
2021-03-06T02:46:03,42.805,6.029,0.007,-0.027,-0.01,103.0,102.0,100.0,13.4,1505.2,323.7,-0.8,1.8,2470.383,13.28,0.027,165.5
2021-03-06T02:49:03,42.805,6.029,-0.009,-0.023,-0.004,101.0,104.0,101.0,13.4,1505.2,325.2,-0.7,1.8,2470.415,13.28,0.024,201.4
2021-03-06T02:52:03,42.805,6.029,-0.003,-0.028,0.014,102.0,102.0,99.0,13.4,1505.2,325.5,-0.8,1.8,2470.457,13.28,0.028,186.1
2021-03-06T02:55:03,42.805,6.029,-0.01,-0.029,-0.016,101.0,104.0,101.0,13.4,1505.2,323.6,-0.7,1.8,2470.414,13.28,0.03,199.0
2021-03-06T02:58:03,42.805,6.029,-0.016,-0.029,0.017,101.0,101.0,101.0,13.4,1505.2,324.2,-0.8,1.8,2470.414,13.28,0.033,208.9
2021-03-06T03:04:03,42.805,6.029,-0.003,-0.019,0.013,100.0,102.0,100.0,13.3,1505.2,325.0,-0.7,1.8,2470.413,13.28,0.019,189.0
2021-03-06T03:07:03,42.805,6.029,-0.018,-0.015,0.025,103.0,100.0,101.0,13.4,1505.2,327.4,-0.7,1.8,2470.396,13.28,0.023,230.2
2021-03-06T03:10:03,42.805,6.029,-0.007,-0.023,0.036,101.0,101.0,101.0,13.4,1505.2,323.6,-0.7,1.8,2470.416,13.28,0.024,196.9
2021-03-06T03:13:03,42.805,6.029,-0.013,-0.011,0.003,98.0,104.0,102.0,13.3,1505.2,324.2,-0.8,1.8,2470.423,13.28,0.017,229.8
2021-03-06T03:16:03,42.805,6.029,0.008,-0.033,0.021,102.0,102.0,99.0,13.3,1505.2,327.1,-0.8,1.8,2470.458,13.28,0.033,166.4
2021-03-06T03:19:03,42.805,6.029,-0.001,-0.019,-0.006,101.0,101.0,101.0,13.4,1505.2,326.5,-0.8,1.8,2470.429,13.28,0.019,183.0
2021-03-06T03:22:03,42.805,6.029,-0.007,-0.023,0.012,105.0,101.0,100.0,13.3,1505.2,323.6,-0.8,1.8,2470.373,13.28,0.024,196.9
2021-03-06T03:25:03,42.805,6.029,0.012,-0.024,0.02,100.0,103.0,102.0,13.3,1505.2,324.9,-0.7,1.8,2470.403,13.28,0.026,153.4
2021-03-06T03:28:03,42.805,6.029,-0.024,-0.02,0.022,101.0,101.0,100.0,13.3,1505.2,325.7,-0.7,1.8,2470.392,13.28,0.031,230.2
2021-03-06T03:31:03,42.805,6.029,0.004,-0.023,-0.006,101.0,101.0,101.0,13.4,1505.2,325.5,-0.8,1.9,2470.407,13.28,0.023,170.1
2021-03-06T03:34:03,42.805,6.029,0.009,-0.027,0.012,102.0,102.0,100.0,13.4,1505.2,326.3,-0.8,1.8,2470.41,13.28,0.028,161.6
2021-03-06T03:37:03,42.805,6.029,-0.002,-0.01,0.035,102.0,101.0,100.0,13.4,1505.2,326.7,-0.7,1.8,2470.38,13.28,0.01,191.3
2021-03-06T03:40:03,42.805,6.029,0.0,-0.007,0.029,100.0,101.0,101.0,13.4,1505.2,324.9,-0.7,1.8,2470.386,13.28,0.007,180.0
2021-03-06T03:43:03,42.805,6.029,-0.007,-0.039,-0.007,102.0,99.0,101.0,13.4,1505.2,327.6,-0.7,1.8,2470.363,13.28,0.039,190.2
2021-03-06T03:46:03,42.805,6.029,-0.005,-0.018,0.003,102.0,102.0,100.0,13.4,1505.2,326.4,-0.8,1.8,2470.385,13.28,0.018,195.5
2021-03-06T03:49:03,42.805,6.029,0.007,-0.033,0.017,101.0,102.0,101.0,13.4,1505.2,325.8,-0.7,1.8,2470.373,13.28,0.033,168.0
2021-03-06T03:52:03,42.805,6.029,0.015,-0.016,0.025,101.0,102.0,101.0,13.4,1505.2,328.5,-0.7,1.8,2470.404,13.28,0.021,136.9
2021-03-06T03:55:03,42.805,6.029,-0.01,-0.032,-0.011,101.0,100.0,100.0,13.4,1505.2,322.8,-0.7,1.8,2470.413,13.28,0.033,197.4
2021-03-06T03:58:03,42.805,6.029,0.015,-0.036,0.018,101.0,101.0,101.0,13.4,1505.2,323.2,-0.8,1.8,2470.396,13.28,0.039,157.4
2021-03-06T04:04:03,42.805,6.029,-0.01,-0.026,0.016,101.0,102.0,99.0,13.3,1505.2,325.4,-0.7,1.8,2470.447,13.28,0.027,201.0
2021-03-06T04:07:03,42.805,6.029,-0.001,-0.033,0.01,101.0,101.0,100.0,13.4,1505.2,327.9,-0.8,1.8,2470.38,13.28,0.033,181.7
2021-03-06T04:10:03,42.805,6.029,-0.002,-0.026,-0.013,101.0,101.0,99.0,13.3,1505.2,324.9,-0.7,1.8,2470.427,13.28,0.026,184.4
2021-03-06T04:13:03,42.805,6.029,0.004,-0.029,0.009,102.0,101.0,100.0,13.3,1505.2,324.8,-0.7,1.8,2470.389,13.28,0.029,172.2
2021-03-06T04:16:03,42.805,6.029,0.003,-0.04,-0.012,103.0,101.0,100.0,13.4,1505.2,324.7,-0.8,1.8,2470.422,13.28,0.04,175.7
2021-03-06T04:19:03,42.805,6.029,0.014,-0.044,0.017,101.0,102.0,99.0,13.3,1505.2,327.4,-0.7,1.8,2470.423,13.28,0.046,162.4
2021-03-06T04:22:03,42.805,6.029,0.004,-0.04,-0.013,103.0,102.0,101.0,13.4,1505.2,324.1,-0.8,1.8,2470.385,13.28,0.04,174.3
2021-03-06T04:25:03,42.805,6.029,0.014,-0.032,0.001,101.0,101.0,100.0,13.3,1505.2,327.3,-0.8,1.8,2470.389,13.28,0.034,156.4
2021-03-06T04:28:03,42.805,6.029,0.023,-0.014,0.01,102.0,103.0,100.0,13.3,1505.2,326.1,-0.8,1.8,2470.422,13.28,0.026,121.3
2021-03-06T04:31:03,42.805,6.029,0.018,-0.039,0.007,100.0,102.0,101.0,13.4,1505.2,326.5,-0.8,1.8,2470.417,13.28,0.042,155.2
2021-03-06T04:34:03,42.805,6.029,0.0,-0.021,0.009,103.0,99.0,100.0,13.3,1505.2,324.7,-0.8,1.8,2470.379,13.28,0.021,180.0
2021-03-06T04:37:03,42.805,6.029,0.021,-0.035,0.029,101.0,101.0,100.0,13.3,1505.2,325.6,-0.8,1.8,2470.384,13.28,0.04,149.0
2021-03-06T04:40:03,42.805,6.029,-0.002,-0.02,0.015,102.0,102.0,101.0,13.4,1505.2,324.6,-0.7,1.8,2470.411,13.28,0.02,185.7
2021-03-06T04:43:03,42.805,6.029,-0.002,-0.045,-0.036,101.0,102.0,100.0,13.3,1505.2,327.0,-0.8,1.8,2470.394,13.28,0.045,182.5
2021-03-06T04:46:03,42.805,6.029,-0.005,-0.022,-0.007,102.0,102.0,101.0,13.3,1505.2,324.4,-0.7,1.8,2470.326,13.28,0.022,192.8
2021-03-06T04:49:03,42.805,6.029,0.033,-0.029,0.02,102.0,101.0,101.0,13.4,1505.2,325.5,-0.8,1.8,2470.379,13.28,0.043,131.3
2021-03-06T04:52:03,42.805,6.029,0.016,-0.025,0.002,102.0,101.0,101.0,13.3,1505.2,327.0,-0.7,1.8,2470.415,13.28,0.029,147.4
2021-03-06T04:55:03,42.805,6.029,0.01,-0.04,-0.026,101.0,103.0,102.0,13.4,1505.2,324.7,-0.7,1.8,2470.377,13.28,0.041,166.0
2021-03-06T04:58:03,42.805,6.029,0.02,-0.019,0.031,102.0,103.0,101.0,13.4,1505.2,326.9,-0.7,1.8,2470.355,13.28,0.027,133.5
2021-03-06T05:04:03,42.805,6.029,0.01,-0.024,0.024,102.0,103.0,101.0,13.4,1505.2,324.5,-0.7,1.8,2470.395,13.28,0.026,157.4
2021-03-06T05:07:03,42.805,6.029,0.001,-0.022,0.022,102.0,102.0,101.0,13.4,1505.2,327.0,-0.8,1.8,2470.415,13.28,0.022,177.4
2021-03-06T05:10:03,42.805,6.029,0.008,-0.026,0.024,103.0,101.0,101.0,13.4,1505.2,325.2,-0.7,1.9,2470.407,13.28,0.027,162.9
2021-03-06T05:13:03,42.805,6.029,0.005,-0.033,-0.003,104.0,103.0,101.0,13.3,1505.2,323.2,-0.8,1.8,2470.345,13.28,0.033,171.4
2021-03-06T05:16:03,42.805,6.029,0.004,-0.029,0.021,103.0,102.0,101.0,13.4,1505.2,324.8,-0.8,1.8,2470.381,13.28,0.029,172.2
2021-03-06T05:19:03,42.805,6.029,0.007,-0.031,0.016,101.0,102.0,100.0,13.4,1505.2,328.1,-0.8,1.8,2470.361,13.28,0.031,167.3
2021-03-06T05:22:03,42.805,6.029,-0.008,-0.021,0.0,103.0,101.0,102.0,13.4,1505.2,325.5,-0.8,1.8,2470.341,13.28,0.022,200.9
2021-03-06T05:25:03,42.805,6.029,0.012,-0.021,0.029,102.0,104.0,101.0,13.4,1505.2,325.3,-0.7,1.8,2470.355,13.28,0.024,150.3
2021-03-06T05:28:03,42.805,6.029,0.008,-0.028,0.035,101.0,101.0,100.0,13.3,1505.2,324.5,-0.8,1.8,2470.35,13.28,0.029,164.1
2021-03-06T05:31:03,42.805,6.029,0.014,-0.036,0.015,102.0,102.0,102.0,13.4,1505.2,324.6,-0.7,1.8,2470.384,13.28,0.038,158.8
2021-03-06T05:34:03,42.805,6.029,0.011,-0.022,-0.002,101.0,104.0,101.0,13.4,1505.2,324.9,-0.7,1.8,2470.379,13.28,0.024,153.4
2021-03-06T05:37:03,42.805,6.029,0.014,-0.022,0.001,101.0,104.0,102.0,13.4,1505.2,326.3,-0.7,1.8,2470.395,13.28,0.026,147.5
2021-03-06T05:40:03,42.805,6.029,0.002,-0.01,0.015,101.0,102.0,101.0,13.4,1505.2,324.7,-0.7,1.8,2470.36,13.28,0.01,168.7
2021-03-06T05:43:03,42.805,6.029,0.023,-0.031,0.01,102.0,100.0,101.0,13.3,1505.2,325.1,-0.7,1.8,2470.365,13.28,0.038,143.4
2021-03-06T05:46:03,42.805,6.029,0.014,-0.024,0.017,102.0,102.0,101.0,13.4,1505.2,324.3,-0.8,1.8,2470.342,13.28,0.027,149.7
2021-03-06T05:49:03,42.805,6.029,0.016,-0.012,0.019,103.0,102.0,102.0,13.4,1505.2,323.5,-0.7,1.8,2470.357,13.28,0.02,126.9
2021-03-06T05:52:03,42.805,6.029,-0.005,-0.016,0.026,101.0,102.0,101.0,13.4,1505.2,326.8,-0.7,1.8,2470.337,13.28,0.016,197.4
2021-03-06T05:55:03,42.805,6.029,0.007,-0.019,0.0,102.0,104.0,102.0,13.4,1505.2,327.0,-0.7,1.8,2470.365,13.28,0.02,159.8
2021-03-06T05:58:03,42.805,6.029,0.026,-0.033,0.02,102.0,104.0,101.0,13.4,1505.2,324.2,-0.8,1.8,2470.356,13.28,0.042,141.8
2021-03-06T06:04:03,42.805,6.029,0.013,-0.038,0.002,101.0,102.0,100.0,13.4,1505.2,326.8,-0.8,1.8,2470.401,13.28,0.04,161.1
2021-03-06T06:07:03,42.805,6.029,0.023,-0.012,0.022,101.0,103.0,100.0,13.4,1505.2,325.6,-0.8,1.8,2470.347,13.28,0.025,117.6
2021-03-06T06:10:03,42.805,6.029,0.035,-0.022,0.009,103.0,101.0,101.0,13.4,1505.2,326.3,-0.8,1.8,2470.327,13.28,0.041,122.2
2021-03-06T06:13:03,42.805,6.029,0.006,-0.015,0.003,102.0,104.0,100.0,13.3,1505.2,323.9,-0.7,1.8,2470.368,13.28,0.016,158.2
2021-03-06T06:16:03,42.805,6.029,-0.006,-0.033,0.018,102.0,102.0,101.0,13.4,1505.2,324.9,-0.7,1.8,2470.365,13.28,0.033,190.3
2021-03-06T06:19:03,42.805,6.029,0.018,-0.015,0.006,101.0,103.0,101.0,13.3,1505.2,327.9,-0.8,1.8,2470.365,13.28,0.023,129.8
2021-03-06T06:22:03,42.805,6.029,0.011,-0.018,0.013,102.0,102.0,100.0,13.4,1505.2,325.3,-0.8,1.8,2470.381,13.28,0.021,148.6
2021-03-06T06:25:03,42.805,6.029,0.04,-0.017,0.031,104.0,101.0,101.0,13.4,1505.2,323.8,-0.7,1.8,2470.369,13.28,0.043,113.0
2021-03-06T06:28:03,42.805,6.029,0.007,-0.02,0.007,102.0,101.0,100.0,13.3,1505.2,326.1,-0.8,1.8,2470.345,13.28,0.021,160.7
2021-03-06T06:31:03,42.805,6.029,0.027,-0.028,0.002,103.0,102.0,101.0,13.3,1505.2,326.4,-0.8,1.8,2470.352,13.28,0.038,136.0
2021-03-06T06:34:03,42.805,6.029,0.0,-0.034,-0.014,103.0,103.0,102.0,13.3,1505.2,328.7,-0.7,1.8,2470.355,13.28,0.034,180.0
2021-03-06T06:37:03,42.805,6.029,0.014,-0.032,0.002,103.0,101.0,100.0,13.4,1505.2,326.8,-0.7,1.8,2470.338,13.28,0.034,156.4
2021-03-06T06:40:03,42.805,6.029,0.019,-0.042,0.017,101.0,103.0,100.0,13.3,1505.2,326.5,-0.7,1.8,2470.355,13.28,0.046,155.7
2021-03-06T06:43:03,42.805,6.029,0.008,-0.021,0.044,103.0,103.0,101.0,13.4,1505.2,324.5,-0.8,1.8,2470.335,13.28,0.022,159.1
2021-03-06T06:46:03,42.805,6.029,0.019,-0.024,0.01,102.0,103.0,100.0,13.3,1505.2,325.6,-0.8,1.8,2470.38,13.28,0.03,141.6
2021-03-06T06:49:03,42.805,6.029,0.012,-0.033,0.034,103.0,101.0,100.0,13.4,1505.2,328.7,-0.7,1.8,2470.332,13.28,0.035,160.0
2021-03-06T06:52:03,42.805,6.029,0.024,-0.037,0.031,102.0,102.0,100.0,13.4,1505.2,325.1,-0.8,1.8,2470.355,13.28,0.044,147.0
2021-03-06T06:55:03,42.805,6.029,0.007,-0.033,-0.017,102.0,103.0,100.0,13.4,1505.2,325.9,-0.8,1.9,2470.407,13.28,0.033,168.0
2021-03-06T06:58:03,42.805,6.029,0.003,-0.028,0.004,100.0,102.0,101.0,13.4,1505.2,325.4,-0.8,1.8,2470.365,13.28,0.028,173.9
2021-03-06T07:04:03,42.805,6.029,0.024,-0.057,0.008,100.0,102.0,101.0,13.4,1505.2,328.2,-0.7,1.8,2470.36,13.28,0.061,157.2
2021-03-06T07:07:03,42.805,6.029,0.027,-0.026,0.021,102.0,102.0,101.0,13.3,1505.2,325.7,-0.8,1.8,2470.355,13.28,0.037,133.9
2021-03-06T07:10:03,42.805,6.029,-0.003,-0.028,-0.004,102.0,99.0,100.0,13.3,1505.2,326.1,-0.8,1.8,2470.332,13.28,0.028,186.1
2021-03-06T07:13:03,42.805,6.029,0.008,-0.034,0.001,100.0,102.0,101.0,13.3,1505.2,325.3,-0.7,1.8,2470.401,13.28,0.034,166.8
2021-03-06T07:16:03,42.805,6.029,0.01,-0.025,0.012,101.0,103.0,100.0,13.3,1505.2,322.9,-0.7,1.8,2470.361,13.28,0.026,158.2
2021-03-06T07:19:03,42.805,6.029,0.007,-0.037,-0.011,104.0,101.0,101.0,13.3,1505.2,325.5,-0.8,1.8,2470.321,13.28,0.037,169.3
2021-03-06T07:22:03,42.805,6.029,-0.003,-0.014,0.032,101.0,101.0,102.0,13.3,1505.2,327.9,-0.7,1.8,2470.365,13.28,0.014,192.1
2021-03-06T07:25:03,42.805,6.029,0.014,-0.054,0.007,102.0,101.0,101.0,13.4,1505.2,326.7,-0.7,1.8,2470.335,13.28,0.055,165.5
2021-03-06T07:28:03,42.805,6.029,0.023,-0.052,-0.002,102.0,102.0,101.0,13.3,1505.2,325.2,-0.7,1.8,2470.391,13.28,0.056,156.1
2021-03-06T07:31:03,42.805,6.029,0.005,-0.029,-0.034,103.0,101.0,101.0,13.3,1505.2,324.7,-0.7,1.8,2470.336,13.28,0.029,170.2
2021-03-06T07:34:03,42.805,6.029,0.007,-0.022,-0.008,103.0,102.0,100.0,13.4,1505.2,327.3,-0.8,1.9,2470.354,13.28,0.023,162.4
2021-03-06T07:37:03,42.805,6.029,0.009,-0.025,0.004,103.0,102.0,101.0,13.3,1505.2,326.8,-0.7,1.8,2470.348,13.28,0.026,160.2
2021-03-06T07:40:03,42.805,6.029,0.019,-0.031,0.02,103.0,103.0,102.0,13.4,1505.2,326.6,-0.8,1.8,2470.338,13.28,0.036,148.5
2021-03-06T07:43:03,42.805,6.029,0.028,-0.053,-0.011,102.0,101.0,102.0,13.4,1505.2,324.8,-0.8,1.8,2470.338,13.28,0.059,152.1
2021-03-06T07:46:03,42.805,6.029,0.01,-0.034,0.002,101.0,103.0,100.0,13.4,1505.2,323.5,-0.7,1.8,2470.32,13.28,0.035,163.6
2021-03-06T07:49:03,42.805,6.029,0.007,-0.047,0.003,101.0,103.0,101.0,13.3,1505.2,326.2,-0.7,1.8,2470.335,13.28,0.047,171.5
2021-03-06T07:52:03,42.805,6.029,0.005,-0.04,0.017,103.0,102.0,100.0,13.4,1505.2,325.4,-0.8,1.9,2470.338,13.28,0.04,172.9
2021-03-06T07:55:03,42.805,6.029,0.005,-0.012,0.037,101.0,102.0,101.0,13.3,1505.2,324.7,-0.8,1.8,2470.342,13.28,0.013,157.4
2021-03-06T07:58:03,42.805,6.029,0.003,-0.017,0.039,101.0,104.0,100.0,13.3,1505.2,326.8,-0.7,1.9,2470.383,13.28,0.017,170.0
2021-03-06T08:04:03,42.805,6.029,0.0,-0.03,-0.001,102.0,102.0,101.0,13.4,1505.2,324.8,-0.8,1.8,2470.326,13.28,0.03,180.0
2021-03-06T08:07:03,42.805,6.029,0.0,-0.022,0.022,102.0,102.0,101.0,13.3,1505.2,323.0,-0.8,1.8,2470.371,13.28,0.022,180.0
2021-03-06T08:10:03,42.805,6.029,0.016,-0.028,0.029,102.0,102.0,100.0,13.4,1505.2,327.2,-0.7,1.8,2470.353,13.28,0.032,150.3
2021-03-06T08:13:03,42.805,6.029,0.021,-0.029,0.0,102.0,102.0,100.0,13.4,1505.2,325.2,-0.8,1.8,2470.362,13.28,0.035,144.1
2021-03-06T08:16:03,42.805,6.029,0.01,-0.027,0.019,103.0,104.0,100.0,13.3,1505.2,325.0,-0.7,1.8,2470.336,13.28,0.028,159.7
2021-03-06T08:19:03,42.805,6.029,0.015,-0.016,0.025,102.0,102.0,101.0,13.4,1505.2,325.2,-0.8,1.8,2470.344,13.28,0.021,136.9
2021-03-06T08:22:03,42.805,6.029,0.032,-0.038,0.002,102.0,103.0,101.0,13.4,1505.2,326.1,-0.8,1.8,2470.352,13.28,0.049,139.9
2021-03-06T08:25:03,42.805,6.029,0.007,-0.026,0.009,102.0,103.0,102.0,13.3,1505.2,323.1,-0.7,1.8,2470.327,13.28,0.026,164.9
2021-03-06T08:28:03,42.805,6.029,0.019,-0.025,0.041,102.0,104.0,100.0,13.4,1505.2,322.9,-0.8,1.8,2470.368,13.28,0.031,142.8
2021-03-06T08:31:03,42.805,6.029,0.012,-0.026,0.035,103.0,102.0,101.0,13.4,1505.2,325.9,-0.8,1.8,2470.337,13.28,0.028,155.2
2021-03-06T08:34:03,42.805,6.029,0.042,-0.032,0.015,101.0,102.0,102.0,13.4,1505.2,326.8,-0.8,1.8,2470.321,13.28,0.052,127.3
2021-03-06T08:37:03,42.805,6.029,0.03,-0.035,0.012,101.0,102.0,101.0,13.3,1505.2,324.6,-0.7,1.8,2470.367,13.28,0.046,139.4
2021-03-06T08:40:03,42.805,6.029,0.005,-0.026,0.014,102.0,102.0,101.0,13.4,1505.2,328.0,-0.8,1.8,2470.389,13.28,0.026,169.1
2021-03-06T08:43:03,42.805,6.029,0.015,-0.048,0.017,102.0,102.0,101.0,13.4,1505.2,325.0,-0.7,1.8,2470.353,13.28,0.05,162.6
2021-03-06T08:46:03,42.805,6.029,0.013,-0.015,0.011,101.0,103.0,101.0,13.4,1505.2,325.4,-0.7,1.8,2470.359,13.28,0.019,139.1
2021-03-06T08:49:03,42.805,6.029,0.011,-0.031,0.049,102.0,102.0,102.0,13.3,1505.2,327.6,-0.8,1.8,2470.307,13.28,0.032,160.5
2021-03-06T08:52:03,42.805,6.029,0.012,-0.049,0.031,103.0,102.0,101.0,13.3,1505.2,326.4,-0.8,1.8,2470.333,13.28,0.05,166.2
2021-03-06T08:55:03,42.805,6.029,0.03,-0.043,0.025,103.0,102.0,101.0,13.4,1505.2,325.7,-0.8,1.8,2470.338,13.28,0.052,145.1
2021-03-06T08:58:03,42.805,6.029,0.024,-0.049,0.023,102.0,103.0,100.0,13.4,1505.2,324.9,-0.7,1.8,2470.327,13.28,0.054,153.9
2021-03-06T09:04:03,42.805,6.029,0.028,-0.038,0.019,101.0,103.0,101.0,13.3,1505.2,328.7,-0.8,1.8,2470.368,13.28,0.047,143.6
2021-03-06T09:07:03,42.805,6.029,0.012,-0.035,-0.004,103.0,102.0,101.0,13.4,1505.2,323.2,-0.8,1.8,2470.394,13.28,0.037,161.1
2021-03-06T09:10:03,42.805,6.029,0.009,-0.036,0.027,101.0,102.0,101.0,13.4,1505.2,325.7,-0.8,1.8,2470.386,13.28,0.037,166.0
2021-03-06T09:13:03,42.805,6.029,0.034,-0.028,0.036,103.0,101.0,101.0,13.3,1505.2,328.2,-0.8,1.8,2470.328,13.28,0.044,129.5
2021-03-06T09:16:03,42.805,6.029,-0.001,-0.034,-0.011,102.0,102.0,101.0,13.3,1505.2,326.6,-0.7,1.9,2470.349,13.28,0.034,181.7
2021-03-06T09:19:03,42.805,6.029,0.009,-0.052,-0.007,101.0,101.0,100.0,13.4,1505.2,323.9,-0.7,1.8,2470.352,13.28,0.052,170.2
2021-03-06T09:22:03,42.805,6.029,0.022,-0.035,0.032,100.0,102.0,100.0,13.3,1505.2,325.8,-0.8,1.8,2470.332,13.28,0.041,147.8
2021-03-06T09:25:03,42.805,6.029,0.006,-0.045,0.002,101.0,101.0,100.0,13.4,1505.2,327.8,-0.8,1.8,2470.365,13.28,0.045,172.4
2021-03-06T09:28:03,42.805,6.029,0.013,-0.022,0.007,101.0,103.0,101.0,13.4,1505.2,323.5,-0.7,1.8,2470.377,13.28,0.025,149.4
2021-03-06T09:31:03,42.805,6.029,0.0,-0.037,0.002,102.0,102.0,101.0,13.4,1505.2,327.6,-0.8,1.9,2470.345,13.28,0.037,180.0
2021-03-06T09:34:03,42.805,6.029,0.018,-0.021,0.025,101.0,101.0,101.0,13.4,1505.2,325.4,-0.8,1.8,2470.36,13.28,0.027,139.4
2021-03-06T09:37:03,42.805,6.029,0.014,-0.031,0.01,102.0,101.0,99.0,13.3,1505.2,323.4,-0.8,1.8,2470.34,13.28,0.034,155.7
2021-03-06T09:40:03,42.805,6.029,0.01,-0.05,-0.024,101.0,104.0,100.0,13.4,1505.2,324.9,-0.8,1.8,2470.387,13.28,0.05,168.7
2021-03-06T09:43:03,42.805,6.029,0.004,-0.045,-0.015,102.0,101.0,102.0,13.4,1505.2,327.0,-0.7,1.8,2470.337,13.28,0.045,174.9
2021-03-06T09:46:03,42.805,6.029,0.02,-0.036,0.004,99.0,102.0,102.0,13.3,1505.2,323.8,-0.8,1.8,2470.335,13.28,0.041,150.9
2021-03-06T09:49:03,42.805,6.029,0.036,-0.036,0.009,103.0,102.0,101.0,13.4,1505.2,323.1,-0.8,1.9,2470.376,13.28,0.05,135.0
2021-03-06T09:52:03,42.805,6.029,0.019,-0.035,0.027,101.0,101.0,102.0,13.4,1505.2,328.3,-0.7,1.9,2470.362,13.28,0.039,151.5
2021-03-06T09:55:03,42.805,6.029,0.004,-0.025,0.002,103.0,102.0,101.0,13.3,1505.2,325.9,-0.7,1.8,2470.36,13.28,0.025,170.9